• In Hungary
  • List of Countries
  • For 7 days
  • Water Temperature
  • Satellite Maps
  • Weather Map
  • News
  • Weather Widgets
  • user-avatar
    Login

    Hourly Weather Vorsino

    Today, 19 August, Sunday

    Time Temperature Precipitation Wind Pressure Humidity
    00:00 +14°C° 0 mm 2 mps 750 mmHg 84%
    01:00 +14°C° 0 mm 2 mps 750 mmHg 84%
    02:00 +14°C° 0 mm 2 mps 750 mmHg 86%
    03:00 +14°C° 0 mm 2 mps 750 mmHg 86%
    04:00 +14°C° 0 mm 2 mps 750 mmHg 85%
    05:00 +14°C° 0 mm 2 mps 749 mmHg 85%
    06:00 +16°C° 0 mm 3 mps 749 mmHg 79%
    07:00 +18°C° 0 mm 3 mps 749 mmHg 73%
    08:00 +20°C° 0 mm 3 mps 749 mmHg 68%
    09:00 +22°C° 0 mm 4 mps 748 mmHg 62%
    10:00 +23°C° 0 mm 4 mps 748 mmHg 57%
    11:00 +26°C° 0 mm 5 mps 747 mmHg 52%
    12:00 +26°C° 0.2 mm 5 mps 747 mmHg 55%
    13:00 +26°C° 0.2 mm 5 mps 746 mmHg 59%
    14:00 +26°C° 0.2 mm 5 mps 746 mmHg 62%
    15:00 +25°C° 0.5 mm 4 mps 746 mmHg 69%
    16:00 +23°C° 0.5 mm 4 mps 745 mmHg 76%
    17:00 +22°C° 0.5 mm 4 mps 745 mmHg 83%
    18:00 +21°C° 0.4 mm 3 mps 745 mmHg 87%
    19:00 +20°C° 0.4 mm 3 mps 745 mmHg 90%
    20:00 +18°C° 0.4 mm 3 mps 745 mmHg 94%
    21:00 +18°C° 0 mm 2 mps 745 mmHg 95%
    22:00 +17°C° 0 mm 2 mps 745 mmHg 95%
    23:00 +16°C° 0 mm 2 mps 745 mmHg 96%

    Tomorrow, 20 August, Monday

    Time Temperature Precipitation Wind Pressure Humidity
    00:00 +16°C° 0 mm 2 mps 745 mmHg 95%
    01:00 +16°C° 0 mm 2 mps 745 mmHg 95%
    02:00 +15°C° 0 mm 2 mps 745 mmHg 95%
    03:00 +15°C° 0 mm 2 mps 745 mmHg 95%
    04:00 +15°C° 0 mm 2 mps 745 mmHg 96%
    05:00 +15°C° 0 mm 2 mps 745 mmHg 96%
    06:00 +16°C° 0 mm 2 mps 745 mmHg 94%
    07:00 +17°C° 0 mm 3 mps 745 mmHg 91%
    08:00 +18°C° 0 mm 3 mps 745 mmHg 88%
    09:00 +18°C° 0.1 mm 3 mps 745 mmHg 82%
    10:00 +19°C° 0.1 mm 3 mps 745 mmHg 75%
    11:00 +20°C° 0.1 mm 4 mps 745 mmHg 69%
    12:00 +20°C° 0 mm 4 mps 744 mmHg 67%
    13:00 +21°C° 0 mm 4 mps 744 mmHg 64%
    14:00 +21°C° 0 mm 4 mps 744 mmHg 62%
    15:00 +21°C° 0 mm 3 mps 743 mmHg 66%
    16:00 +21°C° 0 mm 3 mps 743 mmHg 70%
    17:00 +20°C° 0 mm 3 mps 743 mmHg 74%
    18:00 +19°C° 0.1 mm 3 mps 742 mmHg 81%
    19:00 +18°C° 0.1 mm 3 mps 742 mmHg 88%
    20:00 +17°C° 0.1 mm 3 mps 742 mmHg 95%
    21:00 +17°C° 0 mm 3 mps 741 mmHg 95%
    22:00 +17°C° 0 mm 3 mps 740 mmHg 95%
    23:00 +17°C° 0 mm 3 mps 740 mmHg 95%

    Day after tomorrow, 21 August, Tuesday

    Time Temperature Precipitation Wind Pressure Humidity
    00:00 +17°C° 0 mm 4 mps 739 mmHg 95%
    01:00 +17°C° 0 mm 4 mps 738 mmHg 95%
    02:00 +16°C° 0 mm 5 mps 737 mmHg 95%
    03:00 +16°C° 0.1 mm 5 mps 737 mmHg 94%
    04:00 +17°C° 0.1 mm 5 mps 736 mmHg 93%
    05:00 +17°C° 0.1 mm 5 mps 735 mmHg 93%
    06:00 +17°C° 0.6 mm 6 mps 735 mmHg 92%
    07:00 +17°C° 0.6 mm 6 mps 734 mmHg 91%
    08:00 +17°C° 0.6 mm 6 mps 734 mmHg 90%
    09:00 +17°C° 0.3 mm 7 mps 734 mmHg 84%
    10:00 +17°C° 0.3 mm 7 mps 734 mmHg 78%
    11:00 +17°C° 0.3 mm 8 mps 735 mmHg 72%
    12:00 +17°C° 0 mm 7 mps 735 mmHg 65%
    13:00 +17°C° 0 mm 7 mps 736 mmHg 58%
    14:00 +16°C° 0 mm 7 mps 737 mmHg 52%
    15:00 +16°C° 0 mm 6 mps 737 mmHg 55%
    16:00 +16°C° 0 mm 5 mps 738 mmHg 57%
    17:00 +16°C° 0 mm 5 mps 738 mmHg 60%
    18:00 +15°C° 0 mm 4 mps 739 mmHg 67%
    19:00 +14°C° 0 mm 4 mps 739 mmHg 73%
    20:00 +12°C° 0 mm 3 mps 739 mmHg 79%
    21:00 +12°C° 0.1 mm 4 mps 739 mmHg 81%
    22:00 +12°C° 0.1 mm 4 mps 740 mmHg 83%
    23:00 +11°C° 0.1 mm 4 mps 740 mmHg 84%

    22 August, Wednesday

    Time Temperature Precipitation Wind Pressure Humidity
    00:00 +11°C° 0.2 mm 4 mps 741 mmHg 84%
    01:00 +10°C° 0.2 mm 4 mps 741 mmHg 84%
    02:00 +10°C° 0.2 mm 4 mps 741 mmHg 84%
    03:00 +10°C° 0 mm 4 mps 742 mmHg 84%
    04:00 +8°C° 0 mm 4 mps 742 mmHg 85%
    05:00 +7°C° 0 mm 4 mps 743 mmHg 86%
    06:00 +10°C° 0 mm 4 mps 743 mmHg 79%
    07:00 +10°C° 0 mm 5 mps 744 mmHg 71%
    08:00 +11°C° 0 mm 6 mps 744 mmHg 64%
    09:00 +13°C° 0 mm 6 mps 745 mmHg 59%
    10:00 +14°C° 0 mm 6 mps 745 mmHg 53%
    11:00 +15°C° 0 mm 6 mps 745 mmHg 48%
    12:00 +16°C° 0 mm 6 mps 746 mmHg 46%
    13:00 +16°C° 0 mm 6 mps 746 mmHg 44%
    14:00 +17°C° 0 mm 6 mps 747 mmHg 42%
    15:00 +17°C° 0 mm 5 mps 747 mmHg 45%
    16:00 +17°C° 0 mm 4 mps 747 mmHg 47%
    17:00 +17°C° 0 mm 4 mps 748 mmHg 50%
    18:00 +14°C° 0 mm 3 mps 748 mmHg 56%
    19:00 +12°C° 0 mm 3 mps 749 mmHg 63%
    20:00 +10°C° 0 mm 2 mps 749 mmHg 69%
    21:00 +10°C° 0 mm 2 mps 749 mmHg 72%
    22:00 +9°C° 0 mm 2 mps 750 mmHg 75%
    23:00 +8°C° 0 mm 2 mps 750 mmHg 78%

    23 August, Thursday

    Time Temperature Precipitation Wind Pressure Humidity
    00:00 +8°C° 0 mm 2 mps 750 mmHg 79%
    01:00 +8°C° 0 mm 2 mps 750 mmHg 80%
    02:00 +8°C° 0 mm 2 mps 750 mmHg 81%
    03:00 +8°C° 0 mm 2 mps 750 mmHg 79%
    04:00 +8°C° 0 mm 3 mps 751 mmHg 78%
    05:00 +9°C° 0 mm 3 mps 751 mmHg 76%
    06:00 +11°C° 0 mm 3 mps 750 mmHg 71%
    07:00 +13°C° 0 mm 4 mps 750 mmHg 65%
    08:00 +14°C° 0 mm 4 mps 750 mmHg 60%
    09:00 +16°C° 0 mm 5 mps 750 mmHg 56%
    10:00 +19°C° 0 mm 5 mps 750 mmHg 53%
    11:00 +20°C° 0 mm 5 mps 750 mmHg 49%
    12:00 +21°C° 0 mm 5 mps 749 mmHg 48%
    13:00 +21°C° 0 mm 5 mps 749 mmHg 46%
    14:00 +22°C° 0 mm 5 mps 749 mmHg 45%
    15:00 +21°C° 0 mm 5 mps 749 mmHg 48%
    16:00 +21°C° 0 mm 4 mps 749 mmHg 50%
    17:00 +20°C° 0 mm 4 mps 748 mmHg 53%
    18:00 +19°C° 0 mm 4 mps 749 mmHg 58%
    19:00 +17°C° 0 mm 3 mps 749 mmHg 63%
    20:00 +14°C° 0 mm 3 mps 749 mmHg 69%
    21:00 +14°C° 0 mm 3 mps 749 mmHg 71%
    22:00 +13°C° 0 mm 3 mps 749 mmHg 74%
    23:00 +12°C° 0 mm 3 mps 749 mmHg 76%

    24 August, Friday

    Time Temperature Precipitation Wind Pressure Humidity
    00:00 +12°C° 0 mm 3 mps 749 mmHg 78%
    01:00 +12°C° 0 mm 3 mps 749 mmHg 80%
    02:00 +11°C° 0 mm 3 mps 749 mmHg 82%
    03:00 +11°C° 0 mm 3 mps 749 mmHg 84%
    04:00 +11°C° 0 mm 3 mps 749 mmHg 86%
    05:00 +10°C° 0 mm 3 mps 749 mmHg 88%
    06:00 +12°C° 0 mm 3 mps 750 mmHg 82%
    07:00 +14°C° 0 mm 3 mps 750 mmHg 75%
    08:00 +17°C° 0 mm 3 mps 750 mmHg 69%
    09:00 +19°C° 0 mm 3 mps 750 mmHg 63%
    10:00 +21°C° 0 mm 3 mps 750 mmHg 57%
    11:00 +24°C° 0 mm 3 mps 750 mmHg 51%
    12:00 +24°C° 0 mm 3 mps 750 mmHg 50%
    13:00 +25°C° 0 mm 3 mps 750 mmHg 48%
    14:00 +25°C° 0 mm 3 mps 749 mmHg 47%
    15:00 +25°C° 0 mm 3 mps 749 mmHg 51%
    16:00 +24°C° 0 mm 2 mps 749 mmHg 54%
    17:00 +24°C° 0 mm 2 mps 749 mmHg 58%
    18:00 +20°C° 0 mm 2 mps 749 mmHg 66%
    19:00 +18°C° 0 mm 2 mps 749 mmHg 74%
    20:00 +16°C° 0 mm 2 mps 749 mmHg 81%
    21:00 +16°C° 0 mm 2 mps 749 mmHg 83%
    22:00 +15°C° 0 mm 2 mps 749 mmHg 85%
    23:00 +15°C° 0 mm 2 mps 749 mmHg 87%
    Show more